JCSAT-12 (JCSAT-RA)

Last updated on Tue Oct 21 2025 00:02:51 GMT+0000 (Coordinated Universal Time)

1 35755U 09044A 25293.36377714 .00000000 00000+0 00000+0 0 9999 2 35755 0.0120 214.5288 0001715 29.3926 48.1562 1.00269263 59206
UTC large
Height (km)
Speed (km/s)
/
Latitude / Longitude
Inclination (degrees)
Orbital Period (minutes)
Azimuth
Elevation
Range (km)
Doppler Factor

Next 0 passes for location: London (51.5072 / 0.1276)

Sorry there are no passes over London.